Time,TemperatureF,DewpointF,PressureIn,WindDirection,WindDirectionDegrees,WindSpeedMPH,WindSpeedGustMPH,Humidity,HourlyPrecipIn,Conditions,Clouds,dailyrainin,SolarRadiationWatts/m^2,SoftwareType,DateUTC
2013-01-30 00:00:00,45.5,42.1,30.22,SE,137,1.0,3.0,88,0.00,,,0.00,0.0,WeatherDisplay:10.37,2013-01-29 23:00:00,
2013-01-30 00:05:00,45.3,42.0,30.22,SE,137,1.0,3.0,88,0.00,,,0.00,0.0,WeatherDisplay:10.37,2013-01-29 23:05:00,
2013-01-30 00:10:00,45.2,42.1,30.22,SE,137,0.0,2.0,89,0.00,,,0.00,0.0,WeatherDisplay:10.37,2013-01-29 23:10:00,
2013-01-30 00:15:00,44.1,40.8,30.22,SE,137,1.0,3.0,88,0.00,,,0.00,0.0,WeatherDisplay:10.37,2013-01-29 23:15:00,
2013-01-30 00:20:00,44.1,41.1,30.22,SE,137,2.0,4.0,89,0.00,,,0.00,0.0,WeatherDisplay:10.37,2013-01-29 23:20:00,
2013-01-30 00:25:00,45.0,42.2,30.22,SE,137,0.0,3.0,90,0.00,,,0.00,0.0,WeatherDisplay:10.37,2013-01-29 23:25:00,
2013-01-30 00:30:00,44.7,41.7,30.22,SE,137,1.0,2.0,89,0.00,,,0.00,0.0,WeatherDisplay:10.37,2013-01-29 23:30:00,
2013-01-30 00:35:00,45.1,42.1,30.21,SE,137,3.0,4.0,89,0.00,,,0.00,0.0,WeatherDisplay:10.37,2013-01-29 23:35:00,
2013-01-30 00:40:00,45.6,42.5,30.21,SE,138,1.0,4.0,89,0.00,,,0.00,0.0,WeatherDisplay:10.37,2013-01-29 23:40:00,
2013-01-30 00:45:00,45.2,41.9,30.21,SE,139,0.0,2.0,88,0.00,,,0.00,0.0,WeatherDisplay:10.37,2013-01-29 23:45:00,
2013-01-30 00:50:00,44.9,41.6,30.22,SE,139,1.0,4.0,88,0.00,,,0.00,0.0,WeatherDisplay:10.37,2013-01-29 23:50:00,
2013-01-30 00:55:00,45.6,42.3,30.21,SE,139,2.0,4.0,88,0.00,,,0.00,0.0,WeatherDisplay:10.37,2013-01-29 23:55:00,
2013-01-30 01:00:00,45.8,42.2,30.21,SE,139,2.0,4.0,87,0.00,,,0.00,0.0,WeatherDisplay:10.37,2013-01-30 00:00:00,
2013-01-30 01:05:00,45.8,42.2,30.21,SE,139,1.0,4.0,87,0.00,,,0.00,0.0,WeatherDisplay:10.37,2013-01-30 00:05:00,
2013-01-30 01:10:00,44.8,40.9,30.21,SE,136,2.0,3.0,86,0.00,,,0.00,0.0,WeatherDisplay:10.37,2013-01-30 00:10:00,
2013-01-30 01:15:00,44.0,40.4,30.21,East,97,6.0,6.0,87,0.00,,,0.00,0.0,WeatherDisplay:10.37,2013-01-30 00:15:00,
2013-01-30 01:20:00,43.5,40.2,30.20,ENE,76,3.0,5.0,88,0.00,,,0.00,0.0,WeatherDisplay:10.37,2013-01-30 00:20:00,
2013-01-30 01:25:00,43.5,40.2,30.20,ENE,71,5.0,5.0,88,0.00,,,0.00,0.0,WeatherDisplay:10.37,2013-01-30 00:25:00,
2013-01-30 01:30:00,43.6,40.6,30.20,ENE,71,3.0,5.0,89,0.00,,,0.00,0.0,WeatherDisplay:10.37,2013-01-30 00:30:00,
2013-01-30 01:35:00,43.5,40.5,30.20,ENE,70,5.0,7.0,89,0.00,,,0.00,0.0,WeatherDisplay:10.37,2013-01-30 00:35:00,
2013-01-30 01:40:00,43.7,40.7,30.20,ENE,67,6.0,8.0,89,0.00,,,0.00,0.0,WeatherDisplay:10.37,2013-01-30 00:40:00,
2013-01-30 01:50:00,43.7,40.6,30.21,ENE,60,7.0,9.0,89,0.00,,,0.00,0.0,WeatherDisplay:10.37,2013-01-30 00:50:00,
2013-01-30 01:55:00,43.7,40.7,30.21,NE,56,6.0,9.0,89,0.00,,,0.00,0.0,WeatherDisplay:10.37,2013-01-30 00:55:00,
2013-01-30 02:00:00,43.6,40.9,30.21,NE,55,5.0,7.0,90,0.00,,,0.00,0.0,WeatherDisplay:10.37,2013-01-30 01:00:00,
2013-01-30 02:05:00,43.6,40.9,30.21,NE,54,5.0,7.0,90,0.00,,,0.00,0.0,WeatherDisplay:10.37,2013-01-30 01:05:00,
2013-01-30 02:10:00,43.6,40.9,30.21,NE,54,6.0,8.0,90,0.00,,,0.00,0.0,WeatherDisplay:10.37,2013-01-30 01:10:00,
2013-01-30 02:15:00,43.5,40.8,30.20,NE,53,5.0,6.0,90,0.00,,,0.00,0.0,WeatherDisplay:10.37,2013-01-30 01:15:00,
2013-01-30 02:20:00,43.3,40.6,30.20,NE,53,5.0,7.0,90,0.00,,,0.00,0.0,WeatherDisplay:10.37,2013-01-30 01:20:00,
2013-01-30 02:25:00,43.4,40.7,30.20,NE,52,5.0,6.0,90,0.00,,,0.00,0.0,WeatherDisplay:10.37,2013-01-30 01:25:00,
2013-01-30 02:30:00,43.3,40.6,30.20,NE,51,3.0,6.0,90,0.00,,,0.00,0.0,WeatherDisplay:10.37,2013-01-30 01:30:00,
2013-01-30 02:35:00,43.3,40.8,30.20,NE,46,6.0,8.0,91,0.00,,,0.00,0.0,WeatherDisplay:10.37,2013-01-30 01:35:00,
2013-01-30 02:40:00,43.4,40.9,30.20,NE,43,7.0,8.0,91,0.00,,,0.00,0.0,WeatherDisplay:10.37,2013-01-30 01:40:00,
2013-01-30 02:45:00,43.5,41.0,30.20,NE,44,7.0,8.0,91,0.00,,,0.00,0.0,WeatherDisplay:10.37,2013-01-30 01:45:00,
2013-01-30 02:50:00,43.4,41.0,30.19,NE,47,5.0,6.0,91,0.00,,,0.00,0.0,WeatherDisplay:10.37,2013-01-30 01:50:00,
2013-01-30 02:55:00,43.3,40.8,30.19,NE,50,5.0,6.0,91,0.00,,,0.00,0.0,WeatherDisplay:10.37,2013-01-30 01:55:00,
2013-01-30 03:00:00,43.1,40.4,30.19,NE,51,5.0,6.0,90,0.00,,,0.00,0.0,WeatherDisplay:10.37,2013-01-30 02:00:00,
2013-01-30 03:05:00,43.0,40.5,30.18,NE,52,3.0,5.0,91,0.00,,,0.00,0.0,WeatherDisplay:10.37,2013-01-30 02:05:00,
2013-01-30 03:10:00,42.6,39.9,30.17,NE,54,2.0,5.0,90,0.00,,,0.00,0.0,WeatherDisplay:10.37,2013-01-30 02:10:00,
2013-01-30 03:15:00,42.2,39.8,30.17,NE,56,3.0,7.0,91,0.00,,,0.00,0.0,WeatherDisplay:10.37,2013-01-30 02:15:00,
2013-01-30 03:20:00,42.0,39.6,30.18,NE,51,6.0,8.0,91,0.00,,,0.00,0.0,WeatherDisplay:10.37,2013-01-30 02:20:00,
2013-01-30 03:25:00,42.1,39.7,30.18,NE,49,6.0,8.0,91,0.00,,,0.00,0.0,WeatherDisplay:10.37,2013-01-30 02:25:00,
2013-01-30 03:30:00,42.1,39.7,30.18,NE,47,6.0,9.0,91,0.00,,,0.00,0.0,WeatherDisplay:10.37,2013-01-30 02:30:00,
2013-01-30 03:35:00,42.2,39.8,30.18,NE,46,6.0,8.0,91,0.00,,,0.00,0.0,WeatherDisplay:10.37,2013-01-30 02:35:00,
2013-01-30 03:40:00,42.2,39.8,30.18,NE,41,5.0,8.0,91,0.00,,,0.00,0.0,WeatherDisplay:10.37,2013-01-30 02:40:00,
2013-01-30 03:45:00,42.3,39.9,30.18,NE,37,5.0,7.0,91,0.00,,,0.00,0.0,WeatherDisplay:10.37,2013-01-30 02:45:00,
2013-01-30 03:50:00,42.4,40.0,30.18,NE,38,6.0,7.0,91,0.00,,,0.00,0.0,WeatherDisplay:10.37,2013-01-30 02:50:00,
2013-01-30 03:55:00,42.4,40.0,30.18,NE,42,5.0,9.0,91,0.00,,,0.00,0.0,WeatherDisplay:10.37,2013-01-30 02:55:00,
2013-01-30 04:05:00,42.4,40.0,30.19,NE,45,5.0,9.0,91,0.00,,,0.00,0.0,WeatherDisplay:10.37,2013-01-30 03:05:00,
2013-01-30 04:10:00,42.4,40.0,30.19,NE,37,5.0,8.0,91,0.00,,,0.00,0.0,WeatherDisplay:10.37,2013-01-30 03:10:00,
2013-01-30 04:15:00,42.5,40.1,30.20,NNE,26,5.0,12.0,91,0.00,,,0.00,0.0,WeatherDisplay:10.37,2013-01-30 03:15:00,
2013-01-30 04:20:00,42.6,40.2,30.19,NNE,22,5.0,8.0,91,0.00,,,0.00,0.0,WeatherDisplay:10.37,2013-01-30 03:20:00,
2013-01-30 04:25:00,42.6,40.2,30.19,NNE,27,5.0,8.0,91,0.00,,,0.00,0.0,WeatherDisplay:10.37,2013-01-30 03:25:00,
2013-01-30 04:30:00,42.6,40.2,30.19,NE,38,5.0,8.0,91,0.00,,,0.00,0.0,WeatherDisplay:10.37,2013-01-30 03:30:00,
2013-01-30 04:35:00,42.5,40.1,30.19,NE,49,7.0,9.0,91,0.00,,,0.00,0.0,WeatherDisplay:10.37,2013-01-30 03:35:00,
2013-01-30 04:40:00,42.5,40.1,30.19,NE,47,6.0,8.0,91,0.00,,,0.00,0.0,WeatherDisplay:10.37,2013-01-30 03:40:00,
2013-01-30 04:45:00,42.4,40.0,30.19,NE,45,6.0,8.0,91,0.00,,,0.00,0.0,WeatherDisplay:10.37,2013-01-30 03:45:00,
2013-01-30 04:50:00,42.5,40.0,30.19,NE,46,6.0,8.0,91,0.00,,,0.00,0.0,WeatherDisplay:10.37,2013-01-30 03:50:00,
2013-01-30 04:55:00,42.5,40.1,30.19,NE,41,6.0,8.0,91,0.00,,,0.00,0.0,WeatherDisplay:10.37,2013-01-30 03:55:00,
2013-01-30 05:00:00,42.6,40.1,30.18,NE,46,6.0,9.0,91,0.00,,,0.00,0.0,WeatherDisplay:10.37,2013-01-30 04:00:00,
2013-01-30 05:05:00,42.6,40.2,30.18,NE,48,7.0,9.0,91,0.00,,,0.00,0.0,WeatherDisplay:10.37,2013-01-30 04:05:00,
2013-01-30 05:10:00,42.5,40.1,30.18,NE,51,5.0,8.0,91,0.00,,,0.00,0.0,WeatherDisplay:10.37,2013-01-30 04:10:00,
2013-01-30 05:15:00,42.3,39.8,30.18,ENE,62,3.0,8.0,91,0.00,,,0.00,0.0,WeatherDisplay:10.37,2013-01-30 04:15:00,
2013-01-30 05:20:00,41.9,39.1,30.18,ENE,65,5.0,8.0,90,0.00,,,0.00,0.0,WeatherDisplay:10.37,2013-01-30 04:20:00,
2013-01-30 05:25:00,41.7,39.3,30.18,ENE,60,5.0,8.0,91,0.00,,,0.00,0.0,WeatherDisplay:10.37,2013-01-30 04:25:00,
2013-01-30 05:30:00,41.6,39.2,30.18,NE,55,6.0,8.0,91,0.00,,,0.00,0.0,WeatherDisplay:10.37,2013-01-30 04:30:00,
2013-01-30 05:35:00,41.7,39.2,30.18,NE,48,6.0,8.0,91,0.00,,,0.00,0.0,WeatherDisplay:10.37,2013-01-30 04:35:00,
2013-01-30 05:40:00,41.7,39.3,30.18,NE,46,7.0,10.0,91,0.00,,,0.00,0.0,WeatherDisplay:10.37,2013-01-30 04:40:00,
2013-01-30 05:45:00,41.7,39.3,30.18,NE,50,7.0,10.0,91,0.00,,,0.00,0.0,WeatherDisplay:10.37,2013-01-30 04:45:00,
2013-01-30 05:50:00,41.8,39.4,30.18,NE,50,7.0,9.0,91,0.00,,,0.00,0.0,WeatherDisplay:10.37,2013-01-30 04:50:00,
2013-01-30 05:55:00,41.9,39.5,30.18,NE,48,7.0,10.0,91,0.00,,,0.00,0.0,WeatherDisplay:10.37,2013-01-30 04:55:00,
2013-01-30 06:05:00,41.9,39.5,30.18,NE,47,6.0,10.0,91,0.00,OVC,,0.00,0.0,WeatherDisplay:10.37,2013-01-30 05:05:00,
2013-01-30 06:10:00,41.6,39.2,30.18,NE,52,2.0,8.0,91,0.00,,,0.00,0.0,WeatherDisplay:10.37,2013-01-30 05:10:00,
2013-01-30 06:15:00,41.5,39.1,30.18,ENE,57,5.0,7.0,91,0.00,,,0.00,0.0,WeatherDisplay:10.37,2013-01-30 05:15:00,
2013-01-30 06:20:00,41.3,38.9,30.18,ENE,59,2.0,5.0,91,0.00,,,0.00,0.0,WeatherDisplay:10.37,2013-01-30 05:20:00,
2013-01-30 06:25:00,41.2,38.8,30.18,ENE,59,2.0,5.0,91,0.00,,,0.00,0.0,WeatherDisplay:10.37,2013-01-30 05:25:00,
2013-01-30 06:30:00,41.1,38.7,30.18,ENE,59,1.0,5.0,91,0.00,,,0.00,0.0,WeatherDisplay:10.37,2013-01-30 05:30:00,
2013-01-30 06:35:00,41.0,38.6,30.18,ENE,59,2.0,4.0,91,0.00,,,0.00,0.0,WeatherDisplay:10.37,2013-01-30 05:35:00,
2013-01-30 06:40:00,41.1,38.7,30.19,ENE,59,1.0,4.0,91,0.00,,,0.00,0.0,WeatherDisplay:10.37,2013-01-30 05:40:00,
2013-01-30 06:45:00,41.4,39.2,30.19,NE,42,3.0,5.0,92,0.00,,,0.00,0.0,WeatherDisplay:10.37,2013-01-30 05:45:00,
2013-01-30 06:50:00,41.7,39.2,30.19,NNE,27,5.0,6.0,91,0.00,,,0.00,0.0,WeatherDisplay:10.37,2013-01-30 05:50:00,
2013-01-30 06:55:00,41.7,39.3,30.19,NNE,15,2.0,5.0,91,0.00,,,0.00,0.0,WeatherDisplay:10.37,2013-01-30 05:55:00,
2013-01-30 07:00:00,41.9,39.5,30.19,NNE,27,5.0,7.0,91,0.00,OVC,,0.00,0.0,WeatherDisplay:10.37,2013-01-30 06:00:00,
2013-01-30 07:05:00,41.9,39.5,30.19,NE,38,3.0,6.0,91,0.00,OVC,,0.00,0.0,WeatherDisplay:10.37,2013-01-30 06:05:00,
2013-01-30 07:10:00,41.9,39.5,30.19,NE,37,3.0,5.0,91,0.00,OVC,,0.00,0.0,WeatherDisplay:10.37,2013-01-30 06:10:00,
2013-01-30 07:15:00,42.0,39.6,30.19,NE,35,3.0,6.0,91,0.00,OVC,,0.00,0.0,WeatherDisplay:10.37,2013-01-30 06:15:00,
2013-01-30 07:20:00,42.1,39.6,30.19,NE,35,3.0,6.0,91,0.00,OVC,,0.00,0.0,WeatherDisplay:10.37,2013-01-30 06:20:00,
2013-01-30 07:25:00,42.2,39.7,30.19,NE,34,3.0,6.0,91,0.00,OVC,,0.00,5.0,WeatherDisplay:10.37,2013-01-30 06:25:00,
2013-01-30 07:30:00,42.2,39.8,30.19,NE,34,3.0,5.0,91,0.00,BKN,,0.00,9.0,WeatherDisplay:10.37,2013-01-30 06:30:00,
2013-01-30 07:35:00,42.1,39.4,30.18,NE,47,5.0,7.0,90,0.00,BKN,,0.00,16.0,WeatherDisplay:10.37,2013-01-30 06:35:00,
2013-01-30 07:40:00,41.9,39.2,30.19,ENE,59,3.0,7.0,90,0.00,BKN,,0.00,21.0,WeatherDisplay:10.37,2013-01-30 06:40:00,
2013-01-30 07:45:00,41.8,39.1,30.19,ENE,61,2.0,5.0,90,0.00,BKN,,0.00,25.0,WeatherDisplay:10.37,2013-01-30 06:45:00,
2013-01-30 07:50:00,41.6,38.9,30.19,ENE,62,2.0,5.0,90,0.00,BKN,,0.00,28.0,WeatherDisplay:10.37,2013-01-30 06:50:00,
2013-01-30 07:55:00,41.7,39.0,30.19,ENE,62,2.0,5.0,90,0.00,BKN,,0.00,33.0,WeatherDisplay:10.37,2013-01-30 06:55:00,
2013-01-30 08:00:00,41.8,39.1,30.19,ENE,58,5.0,7.0,90,0.00,BKN,,0.00,37.0,WeatherDisplay:10.37,2013-01-30 07:00:00,
2013-01-30 08:05:00,41.8,39.1,30.20,NE,54,1.0,7.0,90,0.00,BKN,,0.00,51.0,WeatherDisplay:10.37,2013-01-30 07:05:00,
2013-01-30 08:10:00,42.4,39.9,30.20,NE,52,0.0,3.0,91,0.00,BKN,,0.00,54.0,WeatherDisplay:10.37,2013-01-30 07:10:00,
2013-01-30 08:15:00,42.5,39.8,30.20,NE,41,2.0,4.0,90,0.00,BKN,,0.00,54.0,WeatherDisplay:10.37,2013-01-30 07:15:00,
2013-01-30 08:20:00,42.5,39.8,30.20,NE,41,3.0,7.0,90,0.00,BKN,,0.00,40.0,WeatherDisplay:10.37,2013-01-30 07:20:00,
2013-01-30 08:25:00,42.4,39.7,30.21,NE,44,5.0,8.0,90,0.00,BKN,,0.00,47.0,WeatherDisplay:10.37,2013-01-30 07:25:00,
2013-01-30 08:30:00,42.4,39.7,30.20,NE,47,3.0,7.0,90,0.00,BKN,,0.00,62.0,WeatherDisplay:10.37,2013-01-30 07:30:00,
2013-01-30 08:40:00,42.5,39.8,30.20,NE,50,5.0,6.0,90,0.00,BKN,,0.00,118.0,WeatherDisplay:10.37,2013-01-30 07:40:00,
2013-01-30 08:45:00,42.7,40.0,30.21,NE,47,3.0,6.0,90,0.00,BKN,,0.00,134.0,WeatherDisplay:10.37,2013-01-30 07:45:00,
2013-01-30 08:50:00,43.3,40.3,30.20,NE,46,5.0,7.0,89,0.00,BKN,,0.00,151.0,WeatherDisplay:10.37,2013-01-30 07:50:00,
2013-01-30 08:55:00,43.8,40.8,30.20,NE,51,2.0,9.0,89,0.00,SCT,,0.00,160.0,WeatherDisplay:10.37,2013-01-30 07:55:00,
2013-01-30 09:00:00,43.9,40.6,30.20,ENE,63,3.0,8.0,88,0.00,SCT,,0.00,181.0,WeatherDisplay:10.37,2013-01-30 08:00:00,
2013-01-30 09:05:00,44.0,40.4,30.20,ENE,65,2.0,8.0,87,0.00,SCT,,0.00,200.0,WeatherDisplay:10.37,2013-01-30 08:05:00,
2013-01-30 09:10:00,44.3,40.7,30.20,NE,55,2.0,8.0,87,0.00,SCT,,0.00,211.0,WeatherDisplay:10.37,2013-01-30 08:10:00,
2013-01-30 09:15:00,44.4,40.8,30.20,ENE,58,3.0,7.0,87,0.00,SCT,,0.00,225.0,WeatherDisplay:10.37,2013-01-30 08:15:00,
2013-01-30 09:20:00,44.9,40.9,30.20,ENE,61,2.0,7.0,86,0.00,SCT,,0.00,229.0,WeatherDisplay:10.37,2013-01-30 08:20:00,
2013-01-30 09:30:00,45.7,41.4,30.20,ENE,62,1.0,5.0,85,0.00,SCT,,0.00,264.0,WeatherDisplay:10.37,2013-01-30 08:30:00,
2013-01-30 09:35:00,45.8,41.2,30.20,ENE,64,2.0,5.0,84,0.00,FEW,,0.00,278.0,WeatherDisplay:10.37,2013-01-30 08:35:00,
2013-01-30 09:45:00,46.5,41.6,30.20,NE,49,5.0,7.0,83,0.00,FEW,,0.00,304.0,WeatherDisplay:10.37,2013-01-30 08:45:00,
2013-01-30 09:50:00,46.9,41.7,30.20,NE,40,2.0,9.0,82,0.00,FEW,,0.00,316.0,WeatherDisplay:10.37,2013-01-30 08:50:00,
2013-01-30 09:55:00,47.7,41.8,30.20,NE,43,2.0,5.0,80,0.00,FEW,,0.00,327.0,WeatherDisplay:10.37,2013-01-30 08:55:00,
2013-01-30 10:00:00,47.6,41.8,30.20,ENE,61,2.0,9.0,80,0.00,CLR,,0.00,339.0,WeatherDisplay:10.37,2013-01-30 09:00:00,
2013-01-30 10:05:00,48.4,42.2,30.20,ENE,57,5.0,7.0,79,0.00,CLR,,0.00,352.0,WeatherDisplay:10.37,2013-01-30 09:05:00,
2013-01-30 10:10:00,48.4,41.9,30.20,NE,45,3.0,6.0,78,0.00,CLR,,0.00,360.0,WeatherDisplay:10.37,2013-01-30 09:10:00,
2013-01-30 10:20:00,49.9,43.0,30.20,NE,55,1.0,5.0,77,0.00,CLR,,0.00,380.0,WeatherDisplay:10.37,2013-01-30 09:20:00,
2013-01-30 10:25:00,51.0,43.3,30.20,NE,43,2.0,6.0,75,0.00,CLR,,0.00,390.0,WeatherDisplay:10.37,2013-01-30 09:25:00,
2013-01-30 10:30:00,50.6,43.0,30.20,North,2,3.0,7.0,75,0.00,CLR,,0.00,397.0,WeatherDisplay:10.37,2013-01-30 09:30:00,
2013-01-30 10:35:00,52.1,44.1,30.20,North,359,0.0,4.0,74,0.00,CLR,,0.00,411.0,WeatherDisplay:10.37,2013-01-30 09:35:00,
2013-01-30 10:40:00,52.3,43.9,30.20,North,2,1.0,3.0,73,0.00,CLR,,0.00,417.0,WeatherDisplay:10.37,2013-01-30 09:40:00,
2013-01-30 10:45:00,51.8,42.7,30.21,NNE,14,2.0,4.0,71,0.00,CLR,,0.00,429.0,WeatherDisplay:10.37,2013-01-30 09:45:00,
2013-01-30 10:50:00,52.7,43.6,30.21,NNE,14,0.0,3.0,71,0.00,CLR,,0.00,441.0,WeatherDisplay:10.37,2013-01-30 09:50:00,
2013-01-30 10:55:00,52.8,43.3,30.21,North,5,0.0,2.0,70,0.00,CLR,,0.00,445.0,WeatherDisplay:10.37,2013-01-30 09:55:00,
2013-01-30 11:00:00,53.2,43.7,30.21,North,5,0.0,3.0,70,0.00,CLR,,0.00,454.0,WeatherDisplay:10.37,2013-01-30 10:00:00,
2013-01-30 11:05:00,53.5,44.0,30.21,North,5,0.0,3.0,70,0.00,CLR,,0.00,462.0,WeatherDisplay:10.37,2013-01-30 10:05:00,
2013-01-30 11:10:00,53.7,43.8,30.21,North,5,1.0,3.0,69,0.00,CLR,,0.00,469.0,WeatherDisplay:10.37,2013-01-30 10:10:00,
2013-01-30 11:15:00,54.6,44.3,30.21,North,5,1.0,3.0,68,0.00,CLR,,0.00,476.0,WeatherDisplay:10.37,2013-01-30 10:15:00,
2013-01-30 11:20:00,55.3,44.9,30.21,North,5,1.0,3.0,68,0.00,CLR,,0.00,485.0,WeatherDisplay:10.37,2013-01-30 10:20:00,
2013-01-30 11:25:00,55.5,44.7,30.21,North,5,0.0,2.0,67,0.00,CLR,,0.00,494.0,WeatherDisplay:10.37,2013-01-30 10:25:00,
2013-01-30 11:30:00,54.9,44.6,30.21,North,5,0.0,2.0,68,0.00,CLR,,0.00,504.0,WeatherDisplay:10.37,2013-01-30 10:30:00,
2013-01-30 11:35:00,55.7,44.9,30.21,North,5,0.0,1.0,67,0.00,CLR,,0.00,503.0,WeatherDisplay:10.37,2013-01-30 10:35:00,
2013-01-30 11:40:00,55.3,43.8,30.21,North,8,1.0,3.0,65,0.00,CLR,,0.00,510.0,WeatherDisplay:10.37,2013-01-30 10:40:00,
2013-01-30 11:45:00,55.7,44.5,30.20,North,8,0.0,3.0,66,0.00,CLR,,0.00,548.0,WeatherDisplay:10.37,2013-01-30 10:45:00,
2013-01-30 11:50:00,57.3,45.2,30.20,North,9,0.0,2.0,64,0.00,CLR,,0.00,568.0,WeatherDisplay:10.37,2013-01-30 10:50:00,
2013-01-30 11:55:00,57.7,44.8,30.20,North,9,0.0,0.0,62,0.00,CLR,,0.00,543.0,WeatherDisplay:10.37,2013-01-30 10:55:00,
2013-01-30 12:00:00,58.0,44.6,30.19,North,9,0.0,4.0,61,0.00,CLR,,0.00,429.0,WeatherDisplay:10.37,2013-01-30 11:00:00,
2013-01-30 12:05:00,57.9,44.6,30.20,NW,317,1.0,4.0,61,0.00,CLR,,0.00,429.0,WeatherDisplay:10.37,2013-01-30 11:05:00,
2013-01-30 12:10:00,57.9,44.5,30.19,WNW,293,2.0,5.0,61,0.00,CLR,,0.00,473.0,WeatherDisplay:10.37,2013-01-30 11:10:00,
2013-01-30 12:15:00,57.7,44.3,30.19,WNW,296,0.0,4.0,61,0.00,CLR,,0.00,450.0,WeatherDisplay:10.37,2013-01-30 11:15:00,
2013-01-30 12:20:00,57.8,44.5,30.19,WNW,297,1.0,3.0,61,0.00,CLR,,0.00,466.0,WeatherDisplay:10.37,2013-01-30 11:20:00,
2013-01-30 12:25:00,57.8,44.9,30.19,WNW,297,0.0,2.0,62,0.00,CLR,,0.00,438.0,WeatherDisplay:10.37,2013-01-30 11:25:00,
2013-01-30 12:30:00,58.2,44.8,30.19,WNW,297,1.0,3.0,61,0.00,CLR,,0.00,473.0,WeatherDisplay:10.37,2013-01-30 11:30:00,
2013-01-30 12:35:00,58.3,44.9,30.19,WNW,300,2.0,6.0,61,0.00,CLR,,0.00,432.0,WeatherDisplay:10.37,2013-01-30 11:35:00,
2013-01-30 12:40:00,58.1,44.3,30.19,WNW,301,0.0,4.0,60,0.00,CLR,,0.00,450.0,WeatherDisplay:10.37,2013-01-30 11:40:00,
2013-01-30 12:45:00,58.2,44.4,30.19,WNW,302,2.0,4.0,60,0.00,CLR,,0.00,334.0,WeatherDisplay:10.37,2013-01-30 11:45:00,
2013-01-30 12:50:00,58.5,44.7,30.19,WNW,301,0.0,3.0,60,0.00,CLR,,0.00,497.0,WeatherDisplay:10.37,2013-01-30 11:50:00,
2013-01-30 13:00:00,58.9,45.0,30.18,WNW,301,0.0,3.0,60,0.00,CLR,,0.00,459.0,WeatherDisplay:10.37,2013-01-30 12:00:00,
2013-01-30 13:05:00,59.8,44.9,30.18,WNW,301,0.0,2.0,58,0.00,CLR,,0.00,513.0,WeatherDisplay:10.37,2013-01-30 12:05:00,
2013-01-30 13:10:00,59.8,45.0,30.18,WNW,301,2.0,3.0,58,0.00,CLR,,0.00,353.0,WeatherDisplay:10.37,2013-01-30 12:10:00,
2013-01-30 13:15:00,58.3,44.0,30.17,WNW,302,0.0,3.0,59,0.00,CLR,,0.00,367.0,WeatherDisplay:10.37,2013-01-30 12:15:00,
2013-01-30 13:20:00,58.3,44.5,30.17,WNW,302,0.0,2.0,60,0.00,CLR,,0.00,418.0,WeatherDisplay:10.37,2013-01-30 12:20:00,
2013-01-30 13:25:00,58.8,44.5,30.17,WNW,302,1.0,3.0,59,0.00,CLR,,0.00,316.0,WeatherDisplay:10.37,2013-01-30 12:25:00,
2013-01-30 13:30:00,60.1,45.7,30.17,WNW,302,0.0,2.0,59,0.00,CLR,,0.00,496.0,WeatherDisplay:10.37,2013-01-30 12:30:00,
2013-01-30 13:35:00,60.5,46.1,30.17,WNW,290,2.0,4.0,59,0.00,CLR,,0.00,373.0,WeatherDisplay:10.37,2013-01-30 12:35:00,
2013-01-30 13:40:00,60.6,45.7,30.17,West,266,1.0,2.0,58,0.00,CLR,,0.00,526.0,WeatherDisplay:10.37,2013-01-30 12:40:00,
2013-01-30 13:45:00,60.8,45.9,30.17,West,260,2.0,3.0,58,0.00,CLR,,0.00,411.0,WeatherDisplay:10.37,2013-01-30 12:45:00,
2013-01-30 13:50:00,60.9,45.5,30.17,West,261,0.0,2.0,57,0.00,CLR,,0.00,357.0,WeatherDisplay:10.37,2013-01-30 12:50:00,
2013-01-30 13:55:00,60.4,45.1,30.17,West,261,0.0,2.0,57,0.00,CLR,,0.00,281.0,WeatherDisplay:10.37,2013-01-30 12:55:00,
2013-01-30 14:00:00,59.8,45.4,30.16,West,261,0.0,2.0,59,0.00,CLR,,0.00,269.0,WeatherDisplay:10.37,2013-01-30 13:00:00,
2013-01-30 14:05:00,60.3,45.9,30.16,West,261,0.0,1.0,59,0.00,CLR,,0.00,413.0,WeatherDisplay:10.37,2013-01-30 13:05:00,
2013-01-30 14:10:00,60.7,45.4,30.16,West,261,1.0,3.0,57,0.00,CLR,,0.00,357.0,WeatherDisplay:10.37,2013-01-30 13:10:00,
2013-01-30 14:15:00,60.7,44.9,30.17,West,261,0.0,3.0,56,0.00,CLR,,0.00,438.0,WeatherDisplay:10.37,2013-01-30 13:15:00,
2013-01-30 14:20:00,61.1,45.7,30.17,West,261,0.0,2.0,57,0.00,CLR,,0.00,346.0,WeatherDisplay:10.37,2013-01-30 13:20:00,
2013-01-30 14:25:00,61.3,45.5,30.16,West,261,0.0,1.0,56,0.00,CLR,,0.00,290.0,WeatherDisplay:10.37,2013-01-30 13:25:00,
2013-01-30 14:30:00,60.9,45.6,30.16,West,261,0.0,2.0,57,0.00,CLR,,0.00,427.0,WeatherDisplay:10.37,2013-01-30 13:30:00,
2013-01-30 14:35:00,60.3,46.4,30.17,WSW,251,3.0,6.0,60,0.00,CLR,,0.00,466.0,WeatherDisplay:10.37,2013-01-30 13:35:00,
2013-01-30 14:40:00,59.9,47.2,30.17,WSW,248,3.0,5.0,63,0.00,CLR,,0.00,359.0,WeatherDisplay:10.37,2013-01-30 13:40:00,
2013-01-30 14:45:00,60.3,47.2,30.17,WSW,256,3.0,7.0,62,0.00,CLR,,0.00,357.0,WeatherDisplay:10.37,2013-01-30 13:45:00,
2013-01-30 14:50:00,58.9,47.2,30.17,WSW,246,3.0,8.0,65,0.00,CLR,,0.00,258.0,WeatherDisplay:10.37,2013-01-30 13:50:00,
2013-01-30 14:55:00,59.0,46.9,30.17,SW,234,5.0,7.0,64,0.00,CLR,,0.00,401.0,WeatherDisplay:10.37,2013-01-30 13:55:00,
2013-01-30 15:00:00,58.8,47.4,30.17,SW,228,1.0,7.0,66,0.00,CLR,,0.00,290.0,WeatherDisplay:10.37,2013-01-30 14:00:00,
2013-01-30 15:05:00,59.7,47.9,30.16,SW,218,1.0,5.0,65,0.00,CLR,,0.00,322.0,WeatherDisplay:10.37,2013-01-30 14:05:00,
2013-01-30 15:10:00,59.7,47.1,30.16,SSW,203,2.0,6.0,63,0.00,CLR,,0.00,352.0,WeatherDisplay:10.37,2013-01-30 14:10:00,
2013-01-30 15:15:00,58.9,46.7,30.16,SSW,199,3.0,7.0,64,0.00,CLR,,0.00,327.0,WeatherDisplay:10.37,2013-01-30 14:15:00,
2013-01-30 15:20:00,59.3,47.2,30.17,SSW,196,1.0,6.0,64,0.00,CLR,,0.00,306.0,WeatherDisplay:10.37,2013-01-30 14:20:00,
2013-01-30 15:25:00,59.2,47.0,30.16,SSW,200,2.0,5.0,64,0.00,CLR,,0.00,290.0,WeatherDisplay:10.37,2013-01-30 14:25:00,
2013-01-30 15:30:00,59.3,47.1,30.16,SSW,199,1.0,6.0,64,0.00,CLR,,0.00,295.0,WeatherDisplay:10.37,2013-01-30 14:30:00,
2013-01-30 15:35:00,59.3,46.3,30.16,SW,221,5.0,7.0,62,0.00,CLR,,0.00,288.0,WeatherDisplay:10.37,2013-01-30 14:35:00,
2013-01-30 15:40:00,59.2,46.6,30.16,WSW,239,0.0,6.0,63,0.00,CLR,,0.00,279.0,WeatherDisplay:10.37,2013-01-30 14:40:00,
2013-01-30 15:45:00,59.3,46.2,30.16,SW,223,2.0,5.0,62,0.00,CLR,,0.00,262.0,WeatherDisplay:10.37,2013-01-30 14:45:00,
2013-01-30 15:50:00,57.9,45.8,30.16,SSW,194,6.0,10.0,64,0.00,CLR,,0.00,232.0,WeatherDisplay:10.37,2013-01-30 14:50:00,
2013-01-30 15:55:00,57.6,45.9,30.16,South,190,3.0,8.0,65,0.00,CLR,,0.00,216.0,WeatherDisplay:10.37,2013-01-30 14:55:00,
2013-01-30 16:00:00,57.3,45.6,30.15,South,184,3.0,7.0,65,0.00,CLR,,0.00,144.0,WeatherDisplay:10.37,2013-01-30 15:00:00,
2013-01-30 16:05:00,57.3,45.6,30.16,South,188,5.0,9.0,65,0.00,CLR,,0.00,192.0,WeatherDisplay:10.37,2013-01-30 15:05:00,
2013-01-30 16:10:00,57.4,46.1,30.15,South,191,5.0,8.0,66,0.00,CLR,,0.00,146.0,WeatherDisplay:10.37,2013-01-30 15:10:00,
2013-01-30 16:15:00,57.1,45.8,30.15,South,191,3.0,8.0,66,0.00,CLR,,0.00,123.0,WeatherDisplay:10.37,2013-01-30 15:15:00,
2013-01-30 16:20:00,57.1,46.2,30.15,SSW,198,3.0,8.0,67,0.00,BKN,,0.00,137.0,WeatherDisplay:10.37,2013-01-30 15:20:00,
2013-01-30 16:25:00,57.3,46.4,30.15,SSW,192,5.0,7.0,67,0.00,OVC,,0.00,123.0,WeatherDisplay:10.37,2013-01-30 15:25:00,
2013-01-30 16:30:00,57.2,46.7,30.15,South,189,6.0,8.0,68,0.00,OVC,,0.00,116.0,WeatherDisplay:10.37,2013-01-30 15:30:00,
2013-01-30 16:35:00,57.1,47.4,30.15,SSW,195,2.0,7.0,70,0.00,OVC,,0.00,95.0,WeatherDisplay:10.37,2013-01-30 15:35:00,
2013-01-30 16:40:00,56.9,47.9,30.15,South,191,7.0,10.0,72,0.00,OVC,,0.00,77.0,WeatherDisplay:10.37,2013-01-30 15:40:00,
2013-01-30 16:45:00,56.6,48.4,30.16,SSW,193,6.0,9.0,74,0.00,OVC,,0.00,63.0,WeatherDisplay:10.37,2013-01-30 15:45:00,
2013-01-30 16:50:00,56.5,49.0,30.16,SSW,197,2.0,6.0,76,0.00,OVC,,0.00,53.0,WeatherDisplay:10.37,2013-01-30 15:50:00,
2013-01-30 16:55:00,56.4,49.2,30.16,SSW,194,3.0,6.0,77,0.00,OVC,,0.00,35.0,WeatherDisplay:10.37,2013-01-30 15:55:00,
2013-01-30 17:00:00,56.1,49.7,30.16,SSW,192,3.0,7.0,79,0.00,OVC,,0.00,32.0,WeatherDisplay:10.37,2013-01-30 16:00:00,
2013-01-30 17:05:00,56.0,49.9,30.16,SSW,193,1.0,4.0,80,0.00,OVC,,0.00,23.0,WeatherDisplay:10.37,2013-01-30 16:05:00,
2013-01-30 17:10:00,55.9,49.8,30.15,SSW,192,2.0,4.0,80,0.00,OVC,,0.00,16.0,WeatherDisplay:10.37,2013-01-30 16:10:00,
2013-01-30 17:15:00,55.6,49.9,30.16,South,190,1.0,5.0,81,0.00,OVC,,0.00,11.0,WeatherDisplay:10.37,2013-01-30 16:15:00,
2013-01-30 17:20:00,55.4,49.7,30.15,South,188,1.0,5.0,81,0.00,OVC,,0.00,7.0,WeatherDisplay:10.37,2013-01-30 16:20:00,
2013-01-30 17:25:00,55.1,49.7,30.15,South,185,3.0,4.0,82,0.00,OVC,,0.00,0.0,WeatherDisplay:10.37,2013-01-30 16:25:00,
2013-01-30 17:30:00,54.9,49.8,30.15,South,178,3.0,5.0,83,0.00,OVC,,0.00,0.0,WeatherDisplay:10.37,2013-01-30 16:30:00,
2013-01-30 17:35:00,54.7,50.0,30.15,South,176,3.0,5.0,84,0.00,OVC,,0.00,0.0,WeatherDisplay:10.37,2013-01-30 16:35:00,
2013-01-30 17:40:00,54.5,49.8,30.15,South,177,3.0,6.0,84,0.00,OVC,,0.00,0.0,WeatherDisplay:10.37,2013-01-30 16:40:00,
2013-01-30 17:45:00,54.3,49.6,30.15,South,176,2.0,5.0,84,0.00,OVC,,0.00,0.0,WeatherDisplay:10.37,2013-01-30 16:45:00,
2013-01-30 17:50:00,54.1,49.4,30.15,South,176,3.0,5.0,84,0.00,OVC,,0.00,0.0,WeatherDisplay:10.37,2013-01-30 16:50:00,
2013-01-30 17:55:00,53.9,49.5,30.16,South,176,2.0,4.0,85,0.00,,,0.00,0.0,WeatherDisplay:10.37,2013-01-30 16:55:00,
2013-01-30 18:00:00,53.7,49.3,30.16,South,176,2.0,6.0,85,0.00,,,0.00,0.0,WeatherDisplay:10.37,2013-01-30 17:00:00,
2013-01-30 18:05:00,53.4,49.0,30.16,South,176,5.0,7.0,85,0.00,,,0.00,0.0,WeatherDisplay:10.37,2013-01-30 17:05:00,
2013-01-30 18:10:00,53.3,49.2,30.16,South,177,5.0,7.0,86,0.00,,,0.00,0.0,WeatherDisplay:10.37,2013-01-30 17:10:00,
2013-01-30 18:15:00,53.2,49.2,30.16,South,177,3.0,6.0,86,0.00,,,0.00,0.0,WeatherDisplay:10.37,2013-01-30 17:15:00,
2013-01-30 18:20:00,53.2,49.1,30.16,South,177,2.0,5.0,86,0.00,,,0.00,0.0,WeatherDisplay:10.37,2013-01-30 17:20:00,
2013-01-30 18:25:00,53.0,48.9,30.16,South,177,1.0,3.0,86,0.00,,,0.00,0.0,WeatherDisplay:10.37,2013-01-30 17:25:00,
2013-01-30 18:30:00,52.8,48.7,30.16,South,177,1.0,3.0,86,0.00,,,0.00,0.0,WeatherDisplay:10.37,2013-01-30 17:30:00,
2013-01-30 18:35:00,52.6,48.8,30.16,South,177,1.0,2.0,87,0.00,,,0.00,0.0,WeatherDisplay:10.37,2013-01-30 17:35:00,
2013-01-30 18:40:00,52.2,48.4,30.16,South,177,1.0,3.0,87,0.00,,,0.00,0.0,WeatherDisplay:10.37,2013-01-30 17:40:00,
2013-01-30 18:45:00,51.8,48.1,30.16,South,177,0.0,3.0,87,0.00,,,0.00,0.0,WeatherDisplay:10.37,2013-01-30 17:45:00,
2013-01-30 18:50:00,51.6,48.2,30.16,South,177,0.0,2.0,88,0.00,,,0.00,0.0,WeatherDisplay:10.37,2013-01-30 17:50:00,
2013-01-30 18:55:00,51.5,48.1,30.16,South,177,1.0,4.0,88,0.00,,,0.00,0.0,WeatherDisplay:10.37,2013-01-30 17:55:00,
2013-01-30 19:00:00,51.3,48.2,30.16,South,177,0.0,3.0,89,0.00,,,0.00,0.0,WeatherDisplay:10.37,2013-01-30 18:00:00,
2013-01-30 19:10:00,51.4,48.3,30.16,South,177,1.0,3.0,89,0.00,,,0.00,0.0,WeatherDisplay:10.37,2013-01-30 18:10:00,
2013-01-30 19:15:00,51.4,48.3,30.16,South,177,2.0,4.0,89,0.00,,,0.00,0.0,WeatherDisplay:10.37,2013-01-30 18:15:00,
2013-01-30 19:20:00,51.5,48.7,30.16,South,177,1.0,4.0,90,0.00,,,0.00,0.0,WeatherDisplay:10.37,2013-01-30 18:20:00,
2013-01-30 19:25:00,51.5,48.7,30.16,South,177,1.0,3.0,90,0.00,,,0.00,0.0,WeatherDisplay:10.37,2013-01-30 18:25:00,
2013-01-30 19:30:00,51.6,48.8,30.16,South,177,1.0,3.0,90,0.00,,,0.00,0.0,WeatherDisplay:10.37,2013-01-30 18:30:00,
2013-01-30 19:35:00,51.7,48.9,30.16,South,176,2.0,4.0,90,0.00,,,0.00,0.0,WeatherDisplay:10.37,2013-01-30 18:35:00,
2013-01-30 19:40:00,51.6,48.8,30.16,South,175,1.0,4.0,90,0.00,,,0.00,0.0,WeatherDisplay:10.37,2013-01-30 18:40:00,
2013-01-30 19:45:00,51.5,48.7,30.16,South,175,2.0,4.0,90,0.00,FEW,,0.00,0.0,WeatherDisplay:10.37,2013-01-30 18:45:00,
2013-01-30 19:50:00,51.4,48.6,30.16,South,175,2.0,4.0,90,0.00,FEW,,0.00,0.0,WeatherDisplay:10.37,2013-01-30 18:50:00,
2013-01-30 19:55:00,51.4,48.6,30.16,SSE,164,5.0,7.0,90,0.00,FEW,,0.00,0.0,WeatherDisplay:10.37,2013-01-30 18:55:00,
2013-01-30 20:00:00,51.4,48.5,30.16,SSE,161,3.0,7.0,90,0.00,FEW,,0.00,0.0,WeatherDisplay:10.37,2013-01-30 19:00:00,
2013-01-30 20:05:00,51.4,48.8,30.15,SSE,162,5.0,6.0,91,0.00,FEW,,0.00,0.0,WeatherDisplay:10.37,2013-01-30 19:05:00,
2013-01-30 20:10:00,51.6,49.1,30.15,South,171,6.0,10.0,91,0.00,FEW,,0.00,0.0,WeatherDisplay:10.37,2013-01-30 19:10:00,
2013-01-30 20:15:00,52.0,49.4,30.15,South,179,8.0,12.0,91,0.00,FEW,,0.00,0.0,WeatherDisplay:10.37,2013-01-30 19:15:00,
2013-01-30 20:25:00,52.9,50.0,30.17,South,191,5.0,9.0,90,0.00,FEW,,0.00,0.0,WeatherDisplay:10.37,2013-01-30 19:25:00,
2013-01-30 20:30:00,53.3,50.4,30.16,South,191,3.0,8.0,90,0.00,FEW,,0.00,0.0,WeatherDisplay:10.37,2013-01-30 19:30:00,
2013-01-30 20:40:00,53.7,50.9,30.16,SSW,196,6.0,8.0,90,0.00,FEW,,0.00,0.0,WeatherDisplay:10.37,2013-01-30 19:40:00,
2013-01-30 20:45:00,53.9,50.7,30.17,SSW,195,2.0,7.0,89,0.00,FEW,,0.00,0.0,WeatherDisplay:10.37,2013-01-30 19:45:00,
2013-01-30 20:50:00,54.0,50.9,30.17,SSW,193,2.0,7.0,89,0.00,FEW,,0.00,0.0,WeatherDisplay:10.37,2013-01-30 19:50:00,
2013-01-30 20:55:00,54.1,50.9,30.17,SSW,195,2.0,6.0,89,0.00,FEW,,0.00,0.0,WeatherDisplay:10.37,2013-01-30 19:55:00,
2013-01-30 21:00:00,54.1,50.9,30.17,SSW,195,3.0,5.0,89,0.00,FEW,,0.00,0.0,WeatherDisplay:10.37,2013-01-30 20:00:00,
2013-01-30 21:05:00,54.1,51.0,30.17,SSW,195,0.0,5.0,89,0.00,FEW,,0.00,0.0,WeatherDisplay:10.37,2013-01-30 20:05:00,
2013-01-30 21:10:00,54.3,51.1,30.17,SSW,195,0.0,2.0,89,0.00,FEW,,0.00,0.0,WeatherDisplay:10.37,2013-01-30 20:10:00,
2013-01-30 21:15:00,54.4,51.2,30.17,SSW,195,1.0,5.0,89,0.00,SCT,,0.00,0.0,WeatherDisplay:10.37,2013-01-30 20:15:00,
2013-01-30 21:20:00,54.4,51.2,30.17,SSW,195,0.0,1.0,89,0.00,SCT,,0.00,0.0,WeatherDisplay:10.37,2013-01-30 20:20:00,
2013-01-30 21:25:00,54.2,51.0,30.17,SSW,195,0.0,2.0,89,0.00,SCT,,0.00,0.0,WeatherDisplay:10.37,2013-01-30 20:25:00,
2013-01-30 21:30:00,53.9,50.7,30.17,SSW,195,0.0,2.0,89,0.00,SCT,,0.00,0.0,WeatherDisplay:10.37,2013-01-30 20:30:00,
2013-01-30 21:35:00,53.8,50.6,30.17,SSW,195,0.0,1.0,89,0.00,SCT,,0.00,0.0,WeatherDisplay:10.37,2013-01-30 20:35:00,
2013-01-30 21:40:00,53.8,50.7,30.16,SSW,195,0.0,1.0,89,0.00,SCT,,0.00,0.0,WeatherDisplay:10.37,2013-01-30 20:40:00,
2013-01-30 21:45:00,53.7,50.6,30.16,SSW,195,2.0,3.0,89,0.00,BKN,,0.00,0.0,WeatherDisplay:10.37,2013-01-30 20:45:00,
2013-01-30 21:50:00,53.6,50.4,30.16,SSW,195,2.0,3.0,89,0.00,BKN,,0.00,0.0,WeatherDisplay:10.37,2013-01-30 20:50:00,
2013-01-30 21:55:00,53.5,50.3,30.15,SSW,195,1.0,3.0,89,0.00,BKN,,0.00,0.0,WeatherDisplay:10.37,2013-01-30 20:55:00,
2013-01-30 22:00:00,53.3,50.4,30.15,SSW,195,0.0,2.0,90,0.00,BKN,,0.00,0.0,WeatherDisplay:10.37,2013-01-30 21:00:00,
2013-01-30 22:05:00,53.1,50.2,30.15,SSW,195,1.0,3.0,90,0.00,BKN,,0.00,0.0,WeatherDisplay:10.37,2013-01-30 21:05:00,
2013-01-30 22:15:00,53.1,50.3,30.15,SSW,195,0.0,2.0,90,0.00,BKN,,0.00,0.0,WeatherDisplay:10.37,2013-01-30 21:15:00,
2013-01-30 22:20:00,53.0,50.2,30.15,SSW,195,0.0,1.0,90,0.00,BKN,,0.00,0.0,WeatherDisplay:10.37,2013-01-30 21:20:00,
2013-01-30 22:25:00,53.0,50.2,30.15,SSW,195,1.0,3.0,90,0.00,BKN,,0.00,0.0,WeatherDisplay:10.37,2013-01-30 21:25:00,
2013-01-30 22:35:00,53.1,50.5,30.15,SSW,195,0.0,1.0,91,0.00,BKN,,0.00,0.0,WeatherDisplay:10.37,2013-01-30 21:35:00,
2013-01-30 22:40:00,53.3,50.7,30.15,SSW,195,1.0,3.0,91,0.00,BKN,,0.00,0.0,WeatherDisplay:10.37,2013-01-30 21:40:00,
2013-01-30 22:45:00,53.4,50.8,30.15,SSW,195,0.0,3.0,91,0.00,BKN,,0.00,0.0,WeatherDisplay:10.37,2013-01-30 21:45:00,
2013-01-30 22:50:00,53.4,50.8,30.15,SSW,195,1.0,4.0,91,0.00,BKN,,0.00,0.0,WeatherDisplay:10.37,2013-01-30 21:50:00,
2013-01-30 22:55:00,53.4,50.8,30.15,SSW,194,1.0,5.0,91,0.00,BKN,,0.00,0.0,WeatherDisplay:10.37,2013-01-30 21:55:00,
2013-01-30 23:00:00,53.4,50.8,30.15,SSW,194,0.0,3.0,91,0.00,BKN,,0.00,0.0,WeatherDisplay:10.37,2013-01-30 22:00:00,
2013-01-30 23:05:00,53.4,50.8,30.15,SSW,194,0.0,3.0,91,0.00,BKN,,0.00,0.0,WeatherDisplay:10.37,2013-01-30 22:05:00,
2013-01-30 23:10:00,53.4,50.8,30.15,SSW,193,1.0,3.0,91,0.00,BKN,,0.00,0.0,WeatherDisplay:10.37,2013-01-30 22:10:00,
2013-01-30 23:20:00,53.3,50.7,30.15,SSE,152,2.0,4.0,91,0.00,BKN,,0.00,0.0,WeatherDisplay:10.37,2013-01-30 22:20:00,
2013-01-30 23:25:00,53.3,50.7,30.14,SSE,150,2.0,5.0,91,0.00,BKN,,0.00,0.0,WeatherDisplay:10.37,2013-01-30 22:25:00,
2013-01-30 23:30:00,53.3,50.7,30.14,SSE,151,2.0,4.0,91,0.00,BKN,,0.00,0.0,WeatherDisplay:10.37,2013-01-30 22:30:00,
2013-01-30 23:35:00,53.3,50.7,30.14,SSE,151,2.0,4.0,91,0.00,BKN,,0.00,0.0,WeatherDisplay:10.37,2013-01-30 22:35:00,
2013-01-30 23:40:00,53.2,50.6,30.14,SSE,151,2.0,5.0,91,0.00,BKN,,0.00,0.0,WeatherDisplay:10.37,2013-01-30 22:40:00,
2013-01-30 23:45:00,53.2,50.6,30.14,SSE,150,1.0,4.0,91,0.00,BKN,,0.00,0.0,WeatherDisplay:10.37,2013-01-30 22:45:00,
2013-01-30 23:50:00,53.2,50.6,30.14,SSE,150,0.0,3.0,91,0.00,BKN,,0.00,0.0,WeatherDisplay:10.37,2013-01-30 22:50:00,